Regional Weather Roundup
Issued by NWS

Home | Current Version | Previous Version | Graphics & Text | Print | Product List | Glossary On
Versions: 1 2 3 4 5 6 7 8 9 10 11 12 13 14 15 16 17 18 19 20 21 22 23 24 25 26 27 28 29 30 31 32 33 34 35 36 37 38 39 40 41 42 43 44 45 46 47 48 49 50
000
ASUS43 KIND 251159
RWRIN

WEATHER ROUNDUP FOR INDIANA
NATIONAL WEATHER SERVICE INDIANAPOLIS IN
800 AM EDT FRI JUL 25 2014

NOTE: "FAIR" INDICATES FEW OR NO CLOUDS BELOW 12,000 FEET WITH NO
SIGNIFICANT WEATHER AND/OR OBSTRUCTIONS TO VISIBILITY.

* - STATION DOES NOT REPORT WEATHER SUCH AS PRECIPITATION OR FOG.

+ - STATION NOT QUALITY CONTROLLED BY THE NATIONAL WEATHER SERVICE.
    USE DATA WITH CAUTION...ESPECIALLY DEWPOINT AND RELATIVE
    HUMIDITY OBSERVATIONS.

INZ001>003-010>013-019-020-251300-
NORTHWEST INDIANA

CITY           SKY/WX    TMP DP  RH WIND       PRES   REMARKS
GARY /AIRPORT/ PTSUNNY   59  54  82 SW3       30.08R
KNOX *+        PTSUNNY   57  53  87 CALM      30.07R
MONTICELLO +   MOSUNNY   58  55  91 S6        30.05F
VALPARAISO     PTSUNNY   55  51  86 SW3       30.08R
6HR MIN TEMP:  48; 6HR MAX TEMP:  55;


$$

LMZ046-743>745-251300-
SOUTHERN LAKE MICHIGAN

STATION/POSITION TIME  TEMP WIND        PRES
                       AIR  DIR/SP/G
                 (UTC) (F)  (DEG/KT/KT) (MB)
MICHIGAN CITY    1100   57  140/  9/ 12   N/A

$$

INZ004-005-014>016-021>024-251300-
NORTH CENTRAL INDIANA

CITY           SKY/WX    TMP DP  RH WIND       PRES   REMARKS
ELKHART        PTSUNNY   57  55  94 SE5       30.06F
GOSHEN         MOSUNNY   57  55  93 CALM      30.06F
6HR MIN TEMP:  51; 6HR MAX TEMP:  57;

SOUTH BEND     PTSUNNY   61  52  72 SE5       30.06S
6HR MIN TEMP:  52; 6HR MAX TEMP:  61;

WARSAW +       MOSUNNY   54  54 100 CALM      30.06F

$$

INZ006>009-017-018-025>027-251300-
NORTHEAST INDIANA

CITY           SKY/WX    TMP DP  RH WIND       PRES   REMARKS
ANGOLA *+      SUNNY     57  54  88 S5        30.07F
AUBURN +       SUNNY     59  52  77 CALM      30.08F
FORT WAYNE     MOSUNNY   60  54  80 S5        30.09F
6HR MIN TEMP:  54; 6HR MAX TEMP:  60;


$$

INZ028-029-035-036-043>045-051>053-251300-
WEST CENTRAL INDIANA

CITY           SKY/WX    TMP DP  RH WIND       PRES   REMARKS
GREENCASTLE +  SUNNY     54  54 100 CALM      30.09F
LAFAYETTE      PTSUNNY   57  55  93 CALM      30.07F
6HR MIN TEMP:  51; 6HR MAX TEMP:  57;

TERRE HAUTE    MOSUNNY   57  54  89 E3        30.08S
6HR MIN TEMP:  50; 6HR MAX TEMP:  57;


$$

INZ030>032-037>040-046>048-054>057-064-065-251300-
CENTRAL INDIANA

CITY           SKY/WX    TMP DP  RH WIND       PRES   REMARKS
COLUMBUS       SUNNY     54  54 100 CALM      30.12S
INDIANAPOLIS   PTSUNNY   60  56  86 SE5       30.08F
6HR MIN TEMP:  56; 6HR MAX TEMP:  63;

-EAGLE CREEK   SUNNY     60  55  83 SE5       30.08F
6HR MIN TEMP:  55; 6HR MAX TEMP:  61;

KOKOMO *+      SUNNY     55  55 100 S6        30.07F
MT COMFORT *+  SUNNY     55 N/A N/A E3        30.09F
SHELBYVILLE    SUNNY     57  54  89 E5        30.09F FOG
6HR MIN TEMP:  53; 6HR MAX TEMP:  58;


$$

INZ033-034-041-042-049-050-058-059-251300-
EAST CENTRAL INDIANA

CITY           SKY/WX    TMP DP  RH WIND       PRES   REMARKS
MUNCIE         SUNNY     57  52  83 CALM      30.10F
6HR MIN TEMP:  50; 6HR MAX TEMP:  59;


$$

INZ060-061-067>069-081>083-085>088-251300-
SOUTHWEST INDIANA

CITY           SKY/WX    TMP DP  RH WIND       PRES   REMARKS
EVANSVILLE     SUNNY     61  56  83 CALM      30.08S
6HR MIN TEMP:  57; 6HR MAX TEMP:  63;

HUNTINGBURG *+ SUNNY     55  54  94 CALM      30.08F
6HR MIN TEMP:  54; 6HR MAX TEMP:  61;


$$

INZ062-063-066-070>080-084-089>092-251300-
SOUTH CENTRAL AND SOUTHEAST INDIANA

CITY           SKY/WX    TMP DP  RH WIND       PRES   REMARKS
BLOOMINGTON    SUNNY     58  55  90 CALM      30.09F
6HR MIN TEMP:  51; 6HR MAX TEMP:  58;


$$




USA.gov is the U.S. government's official web portal to all federal, state and local government web resources and services.